| time (UTC) | temp F | wind direction | speed MPH | gust MPH | rain 1hr in | rain 24hr in | rain mn in | humidity % | barometer mb |
| 20260510163720 | 59 | 167 | 4.0 | 8.0 | 0.00 | 0.03 | 0.03 | 73 | 1014.1 |
| 20260510162719 | 60 | 183 | 3.0 | 9.0 | 0.00 | 0.03 | 0.03 | 72 | 1014.0 |
| 20260510162219 | 60 | 315 | 3.0 | 7.0 | 0.00 | 0.03 | 0.03 | 72 | 1014.1 |
| 20260510161218 | 60 | 313 | 3.0 | 11.0 | 0.00 | 0.03 | 0.03 | 72 | 1013.9 |
| 20260510155718 | 60 | 282 | 5.0 | 11.0 | 0.01 | 0.03 | 0.03 | 73 | 1013.9 |
| 20260510155217 | 59 | 133 | 5.0 | 11.0 | 0.01 | 0.03 | 0.03 | 72 | 1013.9 |
| 20260510154715 | 59 | 111 | 5.0 | 10.0 | 0.01 | 0.03 | 0.03 | 74 | 1013.8 |
| 20260510154215 | 59 | 171 | 4.0 | 10.0 | 0.01 | 0.03 | 0.03 | 73 | 1013.8 |
| 20260510153714 | 59 | 197 | 4.0 | 8.0 | 0.01 | 0.03 | 0.03 | 74 | 1013.9 |
| 20260510152214 | 59 | 63 | 3.0 | 12.0 | 0.01 | 0.03 | 0.03 | 77 | 1014.0 |
| 20260510151713 | 59 | 192 | 4.0 | 13.0 | 0.01 | 0.03 | 0.03 | 79 | 1013.8 |
| 20260510151213 | 58 | 196 | 3.0 | 13.0 | 0.01 | 0.03 | 0.03 | 79 | 1013.8 |
| 20260510150713 | 58 | 221 | 2.0 | 9.0 | 0.01 | 0.03 | 0.03 | 82 | 1013.9 |
| 20260510150213 | 57 | 111 | 2.0 | 7.0 | 0.00 | 0.02 | 0.02 | 82 | 1013.6 |
| 20260510145713 | 57 | 168 | 3.0 | 9.0 | 0.00 | 0.02 | 0.02 | 81 | 1013.6 |
| 20260510145213 | 58 | 179 | 4.0 | 10.0 | 0.00 | 0.02 | 0.02 | 79 | 1013.6 |
| 20260510144713 | 58 | 117 | 3.0 | 10.0 | 0.00 | 0.02 | 0.02 | 78 | 1013.7 |
| 20260510144212 | 58 | 251 | 4.0 | 9.0 | 0.00 | 0.02 | 0.02 | 76 | 1013.6 |
| 20260510143212 | 58 | 267 | 2.0 | 8.0 | 0.00 | 0.02 | 0.02 | 78 | 1013.4 |
| 20260510142711 | 58 | 236 | 2.0 | 6.0 | 0.00 | 0.02 | 0.02 | 79 | 1013.3 |
| 20260510142211 | 58 | 230 | 3.0 | 8.0 | 0.00 | 0.02 | 0.02 | 79 | 1013.4 |
| 20260510141710 | 57 | 220 | 3.0 | 8.0 | 0.00 | 0.02 | 0.02 | 79 | 1013.3 |
| 20260510141211 | 57 | 198 | 2.0 | 8.0 | 0.00 | 0.02 | 0.02 | 79 | 1013.5 |
| 20260510140712 | 57 | 71 | 2.0 | 5.0 | 0.00 | 0.02 | 0.02 | 79 | 1013.4 |
| 20260510135212 | 57 | 178 | 2.0 | 6.0 | 0.00 | 0.02 | 0.02 | 79 | 1013.4 |
| 20260510134709 | 57 | 115 | 2.0 | 5.0 | 0.00 | 0.02 | 0.02 | 79 | 1013.4 |
| 20260510133709 | 56 | 183 | 3.0 | 8.0 | 0.00 | 0.02 | 0.02 | 80 | 1013.6 |
| 20260510133209 | 56 | 131 | 2.0 | 9.0 | 0.00 | 0.02 | 0.02 | 82 | 1013.5 |
| 20260510132708 | 56 | 151 | 2.0 | 9.0 | 0.00 | 0.02 | 0.02 | 82 | 1013.5 |
| 20260510132208 | 55 | 217 | 2.0 | 5.0 | 0.00 | 0.02 | 0.02 | 83 | 1013.5 |
| 20260510131710 | 55 | 157 | 2.0 | 8.0 | 0.00 | 0.02 | 0.02 | 83 | 1013.6 |
| 20260510130709 | 55 | 186 | 2.0 | 7.0 | 0.00 | 0.02 | 0.02 | 84 | 1013.4 |
| 20260510125709 | 54 | 109 | 3.0 | 9.0 | 0.00 | 0.02 | 0.02 | 84 | 1013.2 |
| 20260510125209 | 54 | 136 | 3.0 | 8.0 | 0.00 | 0.02 | 0.02 | 84 | 1013.5 |
| 20260510124709 | 54 | 98 | 3.0 | 8.0 | 0.00 | 0.02 | 0.02 | 85 | 1013.6 |
| 20260510124209 | 54 | 290 | 2.0 | 7.0 | 0.00 | 0.02 | 0.02 | 85 | 1013.7 |
| 20260510123708 | 54 | 124 | 2.0 | 6.0 | 0.00 | 0.02 | 0.02 | 88 | 1013.9 |
| 20260510123209 | 54 | 180 | 2.0 | 6.0 | 0.00 | 0.02 | 0.02 | 88 | 1013.8 |
| 20260510122708 | 53 | 215 | 2.0 | 6.0 | 0.00 | 0.02 | 0.02 | 89 | 1013.8 |
| 20260510122210 | 53 | 108 | 3.0 | 7.0 | 0.00 | 0.02 | 0.02 | 89 | 1013.7 |
| 20260510121709 | 52 | 218 | 3.0 | 8.0 | 0.00 | 0.02 | 0.02 | 91 | 1013.8 |
| 20260510121209 | 52 | 176 | 3.0 | 8.0 | 0.00 | 0.02 | 0.02 | 92 | 1013.7 |
| 20260510120708 | 51 | 134 | 3.0 | 8.0 | 0.00 | 0.02 | 0.02 | 91 | 1013.6 |
| 20260510115207 | 51 | 269 | 1.0 | 3.0 | 0.00 | 0.02 | 0.02 | 94 | 1013.5 |
| 20260510114707 | 51 | 34 | 1.0 | 2.0 | 0.00 | 0.02 | 0.02 | 95 | 1013.5 |
| 20260510114207 | 50 | 49 | 1.0 | 3.0 | 0.00 | 0.02 | 0.02 | 95 | 1013.5 |
| 20260510113706 | 49 | 49 | 2.0 | 3.0 | 0.00 | 0.02 | 0.02 | 94 | 1013.6 |
| 20260510112205 | 47 | 60 | 0.0 | 1.0 | 0.00 | 0.02 | 0.02 | 94 | 1013.1 |
| 20260510111705 | 47 | 60 | 0.0 | 1.0 | 0.00 | 0.02 | 0.02 | 94 | 1013.1 |
| 20260510111205 | 47 | 60 | 0.0 | 2.0 | 0.00 | 0.02 | 0.02 | 94 | 1013.0 |
| 20260510110704 | 47 | 60 | 0.0 | 2.0 | 0.00 | 0.02 | 0.02 | 94 | 1013.0 |
| 20260510110205 | 47 | 60 | 1.0 | 2.0 | 0.00 | 0.02 | 0.02 | 93 | 1013.1 |
| 20260510105206 | 46 | 60 | 1.0 | 3.0 | 0.00 | 0.02 | 0.02 | 94 | 1013.1 |
| 20260510104205 | 46 | 292 | 1.0 | 2.0 | 0.00 | 0.02 | 0.02 | 93 | 1012.7 |
| 20260510103704 | 46 | 292 | 1.0 | 2.0 | 0.00 | 0.02 | 0.02 | 93 | 1012.1 |
| 20260510103204 | 46 | 292 | 0.0 | 1.0 | 0.00 | 0.02 | 0.02 | 92 | 1012.1 |
| 20260510102704 | 46 | 292 | 0.0 | 1.0 | 0.00 | 0.02 | 0.02 | 92 | 1012.5 |
| 20260510102205 | 46 | 292 | 0.0 | 1.0 | 0.00 | 0.02 | 0.02 | 92 | 1012.7 |
| 20260510101704 | 46 | 292 | 0.0 | 1.0 | 0.00 | 0.02 | 0.02 | 92 | 1012.7 |
| 20260510101204 | 46 | 292 | 0.0 | 0.0 | 0.00 | 0.02 | 0.02 | 92 | 1012.7 |
| 20260510100704 | 46 | 292 | 0.0 | 0.0 | 0.00 | 0.02 | 0.02 | 92 | 1012.8 |
| 20260510100204 | 47 | 292 | 0.0 | 2.0 | 0.00 | 0.02 | 0.02 | 92 | 1012.6 |
| 20260510095704 | 47 | 292 | 1.0 | 2.0 | 0.00 | 0.02 | 0.02 | 92 | 1012.6 |
| 20260510094704 | 47 | 292 | 0.0 | 2.0 | 0.00 | 0.02 | 0.02 | 92 | 1012.3 |
| 20260510094204 | 47 | 292 | 0.0 | 2.0 | 0.00 | 0.02 | 0.02 | 92 | 1012.2 |
| 20260510093704 | 47 | 292 | 1.0 | 2.0 | 0.00 | 0.02 | 0.02 | 92 | 1012.0 |
| 20260510093206 | 48 | 292 | 0.0 | 1.0 | 0.01 | 0.02 | 0.02 | 92 | 1011.9 |
| 20260510092705 | 48 | 292 | 0.0 | 1.0 | 0.01 | 0.02 | 0.02 | 92 | 1011.9 |
| 20260510092205 | 48 | 292 | 1.0 | 3.0 | 0.01 | 0.02 | 0.02 | 91 | 1011.8 |
| 20260510091704 | 48 | 292 | 1.0 | 3.0 | 0.01 | 0.02 | 0.02 | 92 | 1011.8 |
| 20260510091203 | 49 | 292 | 1.0 | 2.0 | 0.02 | 0.02 | 0.02 | 91 | 1011.9 |
| 20260510090702 | 49 | 292 | 1.0 | 3.0 | 0.02 | 0.02 | 0.02 | 91 | 1012.0 |
| 20260510090202 | 49 | 292 | 1.0 | 3.0 | 0.02 | 0.02 | 0.02 | 92 | 1011.9 |
| 20260510085702 | 49 | 294 | 1.0 | 3.0 | 0.02 | 0.02 | 0.02 | 91 | 1012.0 |
| 20260510085202 | 49 | 294 | 1.0 | 3.0 | 0.02 | 0.02 | 0.02 | 91 | 1011.8 |
| 20260510084702 | 49 | 154 | 1.0 | 3.0 | 0.02 | 0.02 | 0.02 | 91 | 1011.4 |
| 20260510084202 | 49 | 112 | 0.0 | 2.0 | 0.02 | 0.02 | 0.02 | 91 | 1011.5 |
| 20260510083703 | 49 | 112 | 0.0 | 1.0 | 0.02 | 0.02 | 0.02 | 90 | 1012.1 |
| 20260510083202 | 49 | 112 | 0.0 | 1.0 | 0.01 | 0.01 | 0.02 | 90 | 1012.3 |
| 20260510082703 | 49 | 112 | 0.0 | 1.0 | 0.01 | 0.01 | 0.01 | 90 | 1012.1 |
| 20260510082202 | 49 | 112 | 1.0 | 2.0 | 0.01 | 0.01 | 0.01 | 89 | 1012.4 |
| 20260510081703 | 50 | 112 | 1.0 | 2.0 | 0.01 | 0.01 | 0.01 | 89 | 1012.4 |
| 20260510080202 | 50 | 112 | 0.0 | 1.0 | 0.00 | 0.00 | 0.00 | 88 | 1012.4 |
| 20260510075703 | 50 | 112 | 0.0 | 1.0 | 0.00 | 0.00 | 0.00 | 88 | 1012.3 |
| 20260510075203 | 50 | 112 | 0.0 | 1.0 | 0.00 | 0.00 | 0.00 | 88 | 1012.2 |
| 20260510074703 | 50 | 112 | 0.0 | 1.0 | 0.00 | 0.00 | 0.00 | 88 | 1012.2 |
| 20260510074200 | 50 | 112 | 0.0 | 0.0 | 0.00 | 0.00 | 0.00 | 88 | 1012.0 |
| 20260510072700 | 50 | 112 | 0.0 | 2.0 | 0.00 | 0.00 | 0.00 | 88 | 1012.2 |
| 20260510072201 | 50 | 112 | 1.0 | 2.0 | 0.00 | 0.00 | 0.00 | 87 | 1012.1 |
| 20260510071700 | 50 | 112 | 1.0 | 2.0 | 0.00 | 0.00 | 0.00 | 87 | 1012.3 |
| 20260510071200 | 50 | 111 | 1.0 | 3.0 | 0.00 | 0.00 | 0.00 | 88 | 1012.3 |
| 20260510070700 | 50 | 115 | 1.0 | 3.0 | 0.00 | 0.00 | 0.00 | 87 | 1012.4 |
| 20260510070200 | 50 | 153 | 1.0 | 2.0 | 0.00 | 0.00 | 0.00 | 87 | 1012.4 |
| 20260510065700 | 50 | 153 | 0.0 | 2.0 | 0.00 | 0.00 | 0.00 | 87 | 1012.5 |
| 20260510064659 | 50 | 153 | 1.0 | 4.0 | 0.00 | 0.00 | 0.00 | 88 | 1012.3 |
| 20260510064158 | 50 | 157 | 1.0 | 5.0 | 0.00 | 0.00 | 0.00 | 88 | 1012.2 |
| 20260510063658 | 50 | 146 | 1.0 | 5.0 | 0.00 | 0.00 | 0.00 | 88 | 1012.2 |
| 20260510063158 | 50 | 179 | 1.0 | 2.0 | 0.00 | 0.00 | 0.00 | 88 | 1012.2 |
| 20260510062658 | 50 | 179 | 1.0 | 3.0 | 0.00 | 0.00 | 0.00 | 88 | 1012.2 |
| 20260510062158 | 50 | 179 | 2.0 | 4.0 | 0.00 | 0.00 | 0.00 | 88 | 1012.2 |
| 20260510061659 | 49 | 140 | 1.0 | 4.0 | 0.00 | 0.00 | 0.00 | 88 | 1012.2 |
| 20260510061158 | 49 | 141 | 1.0 | 4.0 | 0.00 | 0.00 | 0.00 | 88 | 1012.3 |
| 20260510060659 | 49 | 203 | 1.0 | 5.0 | 0.00 | 0.00 | 0.00 | 88 | 1012.4 |
| 20260510060158 | 50 | 153 | 2.0 | 5.0 | 0.00 | 0.00 | 0.00 | 88 | 1012.4 |
| 20260510055658 | 50 | 161 | 2.0 | 5.0 | 0.00 | 0.00 | 0.00 | 88 | 1012.4 |
| 20260510054158 | 50 | 209 | 2.0 | 7.0 | 0.00 | 0.00 | 0.00 | 88 | 1012.7 |
| 20260510053657 | 50 | 170 | 2.0 | 6.0 | 0.00 | 0.00 | 0.00 | 88 | 1012.6 |
| 20260510053156 | 49 | 209 | 2.0 | 6.0 | 0.00 | 0.00 | 0.00 | 88 | 1012.7 |
| 20260510052154 | 49 | 162 | 2.0 | 7.0 | 0.00 | 0.00 | 0.00 | 88 | 1012.7 |
| 20260510051653 | 49 | 146 | 2.0 | 7.0 | 0.00 | 0.00 | 0.00 | 88 | 1012.7 |
| 20260510051155 | 49 | 178 | 2.0 | 8.0 | 0.00 | 0.00 | 0.00 | 87 | 1012.6 |
| 20260510050654 | 49 | 204 | 2.0 | 8.0 | 0.00 | 0.00 | 0.00 | 87 | 1012.7 |
| 20260510050154 | 49 | 100 | 2.0 | 6.0 | 0.00 | 0.00 | 0.00 | 87 | 1012.6 |
| 20260510045654 | 49 | 195 | 1.0 | 4.0 | 0.00 | 0.00 | 0.00 | 87 | 1012.8 |
| 20260510045153 | 49 | 195 | 1.0 | 4.0 | 0.00 | 0.00 | 0.00 | 87 | 1012.9 |
| 20260510044154 | 49 | 167 | 1.0 | 5.0 | 0.00 | 0.00 | 0.00 | 87 | 1012.8 |
| 20260510043655 | 49 | 174 | 2.0 | 5.0 | 0.00 | 0.00 | 0.00 | 87 | 1012.8 |
| 20260510043154 | 49 | 189 | 2.0 | 5.0 | 0.00 | 0.00 | 0.00 | 87 | 1012.7 |
| 20260510042654 | 49 | 189 | 1.0 | 5.0 | 0.00 | 0.00 | 0.00 | 87 | 1012.6 |
| 20260510042153 | 49 | 184 | 2.0 | 5.0 | 0.00 | 0.00 | 0.00 | 87 | 1012.5 |
| 20260510041154 | 49 | 183 | 2.0 | 7.0 | 0.00 | 0.00 | 0.00 | 87 | 1012.6 |
| 20260510040653 | 49 | 171 | 2.0 | 7.0 | 0.00 | 0.00 | 0.00 | 87 | 1012.6 |
| 20260510040153 | 49 | 164 | 1.0 | 5.0 | 0.00 | 0.00 | 0.00 | 87 | 1012.6 |
| 20260510035653 | 49 | 180 | 2.0 | 4.0 | 0.00 | 0.00 | 0.00 | 87 | 1012.8 |
| 20260510035153 | 49 | 175 | 2.0 | 6.0 | 0.00 | 0.00 | 0.00 | 87 | 1012.9 |
| 20260510034653 | 49 | 186 | 2.0 | 11.0 | 0.00 | 0.00 | 0.00 | 86 | 1013.0 |
| 20260510034154 | 49 | 193 | 3.0 | 11.0 | 0.00 | 0.00 | 0.00 | 86 | 1013.0 |
| 20260510033651 | 49 | 252 | 3.0 | 7.0 | 0.00 | 0.00 | 0.00 | 86 | 1013.1 |
| 20260510033152 | 49 | 193 | 2.0 | 5.0 | 0.00 | 0.00 | 0.00 | 86 | 1013.0 |
| 20260510032652 | 49 | 153 | 2.0 | 7.0 | 0.00 | 0.00 | 0.00 | 86 | 1012.9 |
| 20260510032151 | 49 | 213 | 2.0 | 7.0 | 0.00 | 0.00 | 0.00 | 86 | 1012.8 |
| 20260510031651 | 49 | 169 | 1.0 | 6.0 | 0.00 | 0.00 | 0.00 | 86 | 1012.8 |
| 20260510031151 | 49 | 158 | 1.0 | 5.0 | 0.00 | 0.00 | 0.00 | 86 | 1012.9 |
| 20260510030651 | 49 | 163 | 2.0 | 6.0 | 0.00 | 0.00 | 0.00 | 86 | 1012.9 |
| 20260510030151 | 49 | 140 | 2.0 | 7.0 | 0.00 | 0.00 | 0.00 | 86 | 1012.9 |
| 20260510025650 | 49 | 262 | 1.0 | 7.0 | 0.00 | 0.00 | 0.00 | 86 | 1013.2 |
| 20260510025152 | 49 | 196 | 1.0 | 5.0 | 0.00 | 0.00 | 0.00 | 86 | 1013.1 |
| 20260510024649 | 49 | 207 | 2.0 | 5.0 | 0.00 | 0.00 | 0.00 | 86 | 1013.1 |
| 20260510024148 | 49 | 110 | 2.0 | 4.0 | 0.00 | 0.00 | 0.00 | 86 | 1013.1 |
| 20260510023648 | 49 | 188 | 2.0 | 4.0 | 0.00 | 0.00 | 0.00 | 85 | 1013.1 |
| 20260510023149 | 49 | 252 | 1.0 | 5.0 | 0.00 | 0.00 | 0.00 | 85 | 1013.1 |
| 20260510022649 | 49 | 150 | 1.0 | 5.0 | 0.00 | 0.00 | 0.00 | 85 | 1013.1 |
| 20260510021649 | 49 | 147 | 1.0 | 5.0 | 0.00 | 0.00 | 0.00 | 85 | 1013.0 |
| 20260510021150 | 49 | 136 | 2.0 | 6.0 | 0.00 | 0.00 | 0.00 | 85 | 1013.1 |
| 20260510020648 | 49 | 134 | 2.0 | 6.0 | 0.00 | 0.00 | 0.00 | 85 | 1013.1 |
| 20260510020144 | 49 | 250 | 1.0 | 3.0 | 0.00 | 0.00 | 0.00 | 85 | 1012.9 |
| 20260510015146 | 49 | 304 | 2.0 | 5.0 | 0.00 | 0.00 | 0.00 | 85 | 1013.3 |
| 20260510014644 | 49 | 247 | 2.0 | 6.0 | 0.00 | 0.00 | 0.00 | 85 | 1013.4 |
| 20260510014145 | 49 | 182 | 1.0 | 6.0 | 0.00 | 0.00 | 0.00 | 85 | 1013.5 |
| 20260510013644 | 49 | 161 | 2.0 | 4.0 | 0.00 | 0.00 | 0.00 | 85 | 1013.4 |
| 20260510013145 | 49 | 161 | 2.0 | 5.0 | 0.00 | 0.00 | 0.00 | 84 | 1013.5 |
| 20260510012645 | 49 | 216 | 3.0 | 6.0 | 0.00 | 0.00 | 0.00 | 84 | 1013.4 |
| 20260510012145 | 49 | 206 | 2.0 | 6.0 | 0.00 | 0.00 | 0.00 | 84 | 1013.4 |
| 20260510011644 | 49 | 182 | 2.0 | 6.0 | 0.00 | 0.00 | 0.00 | 84 | 1013.4 |
| 20260510011145 | 49 | 218 | 2.0 | 6.0 | 0.00 | 0.00 | 0.00 | 84 | 1013.7 |
| 20260510010646 | 49 | 224 | 2.0 | 6.0 | 0.00 | 0.00 | 0.00 | 84 | 1013.7 |
| 20260510010145 | 49 | 216 | 2.0 | 5.0 | 0.00 | 0.00 | 0.00 | 84 | 1013.6 |
| 20260510005645 | 49 | 219 | 1.0 | 4.0 | 0.00 | 0.00 | 0.00 | 84 | 1013.4 |
| 20260510005145 | 49 | 167 | 1.0 | 3.0 | 0.00 | 0.00 | 0.00 | 84 | 1013.5 |
| 20260510004645 | 49 | 224 | 1.0 | 2.0 | 0.00 | 0.00 | 0.00 | 84 | 1013.5 |
| 20260510004144 | 49 | 223 | 2.0 | 5.0 | 0.00 | 0.00 | 0.00 | 84 | 1013.5 |
| 20260510002645 | 49 | 192 | 2.0 | 5.0 | 0.00 | 0.00 | 0.00 | 84 | 1013.1 |
| 20260510001646 | 49 | 186 | 1.0 | 4.0 | 0.00 | 0.00 | 0.00 | 83 | 1013.0 |
| 20260510000146 | 50 | 217 | 1.0 | 3.0 | 0.00 | 0.00 | 0.00 | 83 | 1013.1 |
| 20260509235646 | 50 | 217 | 1.0 | 3.0 | 0.00 | 0.00 | 0.00 | 83 | 1013.1 |
| 20260509235146 | 49 | 217 | 2.0 | 4.0 | 0.00 | 0.00 | 0.00 | 83 | 1012.9 |
| 20260509234645 | 49 | 214 | 2.0 | 4.0 | 0.00 | 0.00 | 0.00 | 83 | 1013.0 |
| 20260509234144 | 49 | 159 | 2.0 | 6.0 | 0.00 | 0.00 | 0.00 | 83 | 1012.9 |
| 20260509233644 | 49 | 186 | 2.0 | 6.0 | 0.00 | 0.00 | 0.00 | 83 | 1012.9 |
| 20260509233144 | 49 | 211 | 2.0 | 5.0 | 0.00 | 0.00 | 0.00 | 83 | 1012.9 |
| 20260509232644 | 49 | 115 | 2.0 | 7.0 | 0.00 | 0.00 | 0.00 | 83 | 1012.8 |
| 20260509232144 | 49 | 184 | 2.0 | 8.0 | 0.00 | 0.00 | 0.00 | 83 | 1012.9 |
| 20260509231645 | 50 | 175 | 2.0 | 8.0 | 0.00 | 0.00 | 0.00 | 83 | 1012.9 |
| 20260509231145 | 50 | 166 | 2.0 | 5.0 | 0.00 | 0.00 | 0.00 | 83 | 1013.0 |
| 20260509230645 | 50 | 187 | 2.0 | 6.0 | 0.00 | 0.00 | 0.00 | 82 | 1013.1 |
| 20260509230145 | 50 | 197 | 1.0 | 6.0 | 0.00 | 0.00 | 0.00 | 83 | 1013.0 |
| 20260509225645 | 50 | 91 | 1.0 | 5.0 | 0.00 | 0.00 | 0.00 | 82 | 1012.9 |
| 20260509225143 | 50 | 75 | 2.0 | 5.0 | 0.00 | 0.00 | 0.00 | 82 | 1012.9 |
| 20260509224644 | 50 | 165 | 3.0 | 8.0 | 0.00 | 0.00 | 0.00 | 82 | 1012.9 |
| 20260509224142 | 50 | 157 | 3.0 | 10.0 | 0.00 | 0.00 | 0.00 | 82 | 1012.9 |
| 20260509223642 | 50 | 193 | 2.0 | 10.0 | 0.00 | 0.00 | 0.00 | 82 | 1013.0 |
| 20260509223142 | 50 | 227 | 1.0 | 4.0 | 0.00 | 0.00 | 0.00 | 82 | 1013.0 |
| 20260509222642 | 50 | 115 | 1.0 | 3.0 | 0.00 | 0.00 | 0.00 | 82 | 1013.0 |
| 20260509221641 | 50 | 141 | 1.0 | 5.0 | 0.00 | 0.00 | 0.00 | 82 | 1013.1 |
| 20260509221140 | 50 | 207 | 1.0 | 5.0 | 0.00 | 0.00 | 0.00 | 82 | 1013.2 |
| 20260509220642 | 50 | 141 | 1.0 | 5.0 | 0.00 | 0.00 | 0.00 | 82 | 1013.1 |
| 20260509220139 | 50 | 141 | 1.0 | 5.0 | 0.00 | 0.00 | 0.00 | 82 | 1013.1 |
| 20260509215636 | 50 | 202 | 2.0 | 6.0 | 0.00 | 0.00 | 0.00 | 82 | 1013.1 |
| 20260509215137 | 50 | 205 | 3.0 | 6.0 | 0.00 | 0.00 | 0.00 | 82 | 1013.3 |
| 20260509214636 | 50 | 211 | 2.0 | 5.0 | 0.00 | 0.00 | 0.00 | 82 | 1013.4 |
| 20260509214136 | 50 | 228 | 2.0 | 7.0 | 0.00 | 0.00 | 0.00 | 82 | 1013.4 |
| 20260509213636 | 50 | 213 | 3.0 | 7.0 | 0.00 | 0.00 | 0.00 | 82 | 1013.3 |
| 20260509213136 | 50 | 233 | 2.0 | 7.0 | 0.00 | 0.00 | 0.00 | 82 | 1013.5 |
| 20260509212636 | 49 | 136 | 2.0 | 7.0 | 0.00 | 0.00 | 0.00 | 82 | 1013.5 |
| 20260509212135 | 49 | 142 | 3.0 | 7.0 | 0.00 | 0.00 | 0.00 | 82 | 1013.5 |
| 20260509211636 | 49 | 175 | 2.0 | 5.0 | 0.00 | 0.00 | 0.00 | 82 | 1013.6 |
| 20260509211133 | 49 | 185 | 2.0 | 5.0 | 0.00 | 0.00 | 0.00 | 82 | 1013.5 |
| 20260509210632 | 49 | 171 | 3.0 | 7.0 | 0.00 | 0.00 | 0.00 | 82 | 1013.6 |
| 20260509210132 | 49 | 150 | 2.0 | 7.0 | 0.00 | 0.00 | 0.00 | 82 | 1013.6 |
| 20260509205632 | 49 | 157 | 2.0 | 6.0 | 0.00 | 0.00 | 0.00 | 82 | 1013.6 |
| 20260509205133 | 49 | 157 | 1.0 | 6.0 | 0.00 | 0.00 | 0.00 | 82 | 1013.6 |
| 20260509204632 | 49 | 220 | 1.0 | 4.0 | 0.00 | 0.00 | 0.00 | 82 | 1013.5 |
| 20260509204132 | 49 | 218 | 2.0 | 8.0 | 0.00 | 0.00 | 0.00 | 82 | 1013.5 |
| 20260509203632 | 49 | 156 | 2.0 | 8.0 | 0.00 | 0.00 | 0.00 | 82 | 1013.5 |
| 20260509203132 | 49 | 144 | 3.0 | 9.0 | 0.00 | 0.00 | 0.00 | 83 | 1013.6 |
| 20260509202633 | 49 | 89 | 4.0 | 10.0 | 0.00 | 0.00 | 0.00 | 82 | 1013.7 |
| 20260509202131 | 49 | 70 | 3.0 | 10.0 | 0.00 | 0.00 | 0.00 | 82 | 1013.7 |
| 20260509201630 | 50 | 232 | 2.0 | 6.0 | 0.00 | 0.00 | 0.00 | 83 | 1013.8 |
| 20260509201130 | 50 | 163 | 2.0 | 6.0 | 0.00 | 0.00 | 0.00 | 83 | 1013.8 |
| 20260509200630 | 50 | 206 | 2.0 | 4.0 | 0.00 | 0.00 | 0.00 | 83 | 1013.9 |
| 20260509200130 | 49 | 161 | 2.0 | 4.0 | 0.00 | 0.00 | 0.00 | 83 | 1013.8 |
| 20260509195631 | 49 | 157 | 1.0 | 3.0 | 0.00 | 0.00 | 0.00 | 83 | 1013.9 |
| 20260509194630 | 49 | 157 | 1.0 | 2.0 | 0.00 | 0.00 | 0.00 | 83 | 1014.0 |
| 20260509194131 | 49 | 157 | 0.0 | 2.0 | 0.00 | 0.00 | 0.00 | 83 | 1014.0 |
| 20260509193631 | 49 | 157 | 0.0 | 2.0 | 0.00 | 0.00 | 0.00 | 83 | 1014.1 |
| 20260509193131 | 49 | 157 | 1.0 | 2.0 | 0.00 | 0.00 | 0.00 | 83 | 1014.3 |
| 20260509192628 | 49 | 157 | 1.0 | 2.0 | 0.00 | 0.00 | 0.00 | 83 | 1014.2 |
| 20260509192127 | 49 | 157 | 1.0 | 2.0 | 0.00 | 0.00 | 0.00 | 83 | 1014.3 |
| 20260509191627 | 49 | 157 | 0.0 | 2.0 | 0.00 | 0.00 | 0.00 | 82 | 1014.3 |
| 20260509190628 | 49 | 157 | 1.0 | 5.0 | 0.00 | 0.00 | 0.00 | 82 | 1014.3 |
| 20260509190128 | 49 | 157 | 1.0 | 5.0 | 0.00 | 0.00 | 0.00 | 82 | 1014.3 |
| 20260509185629 | 49 | 187 | 1.0 | 3.0 | 0.00 | 0.00 | 0.00 | 82 | 1014.4 |
| 20260509184626 | 49 | 188 | 2.0 | 5.0 | 0.00 | 0.00 | 0.00 | 82 | 1014.6 |
| 20260509184126 | 49 | 205 | 2.0 | 7.0 | 0.00 | 0.00 | 0.00 | 81 | 1014.6 |
| 20260509183626 | 49 | 198 | 2.0 | 7.0 | 0.00 | 0.00 | 0.00 | 81 | 1014.6 |
| 20260509183126 | 49 | 144 | 2.0 | 6.0 | 0.00 | 0.00 | 0.00 | 82 | 1014.7 |
| 20260509181624 | 49 | 159 | 2.0 | 6.0 | 0.00 | 0.00 | 0.00 | 82 | 1014.7 |
| 20260509180623 | 49 | 209 | 2.0 | 5.0 | 0.00 | 0.00 | 0.00 | 82 | 1014.8 |
| 20260509180125 | 49 | 180 | 2.0 | 5.0 | 0.00 | 0.00 | 0.00 | 82 | 1014.7 |
| 20260509175625 | 49 | 205 | 2.0 | 6.0 | 0.00 | 0.00 | 0.00 | 82 | 1014.9 |
| 20260509175123 | 49 | 230 | 2.0 | 6.0 | 0.00 | 0.00 | 0.00 | 82 | 1014.8 |
| 20260509174619 | 49 | 146 | 2.0 | 6.0 | 0.00 | 0.00 | 0.00 | 82 | 1014.9 |
| 20260509174120 | 49 | 181 | 3.0 | 8.0 | 0.00 | 0.00 | 0.00 | 81 | 1015.0 |
| 20260509173617 | 49 | 146 | 3.0 | 8.0 | 0.00 | 0.00 | 0.00 | 81 | 1015.0 |
| 20260509172616 | 50 | 136 | 3.0 | 9.0 | 0.00 | 0.00 | 0.00 | 79 | 1015.0 |
| 20260509172117 | 50 | 136 | 3.0 | 9.0 | 0.00 | 0.00 | 0.00 | 78 | 1015.0 |
| 20260509171117 | 51 | 200 | 4.0 | 11.0 | 0.00 | 0.00 | 0.00 | 76 | 1015.0 |
| 20260509170616 | 51 | 182 | 4.0 | 11.0 | 0.00 | 0.00 | 0.00 | 75 | 1015.0 |
| 20260509170115 | 51 | 194 | 4.0 | 10.0 | 0.00 | 0.00 | 0.00 | 73 | 1015.1 |
| 20260509165613 | 52 | 125 | 4.0 | 9.0 | 0.00 | 0.00 | 0.00 | 71 | 1014.9 |
| 20260509165114 | 52 | 179 | 4.0 | 14.0 | 0.00 | 0.00 | 0.00 | 68 | 1015.0 |
| 20260509164614 | 52 | 179 | 5.0 | 14.0 | 0.00 | 0.00 | 0.00 | 67 | 1015.0 |